Regional Weather Roundup
Issued by NWS

Home | Current Version | Previous Version | Graphics & Text | Print | Product List | Glossary Off
Versions: 1 2 3 4 5 6 7 8 9 10 11 12 13 14 15 16 17 18 19 20 21 22 23 24 25 26 27 28 29 30 31 32 33 34 35 36 37 38 39 40 41 42 43 44 45 46 47 48 49 50

000
ASUS43 KTOP 272159
RWRKS

WEATHER ROUNDUP FOR KANSAS
NATIONAL WEATHER SERVICE GOODLAND KS
500 PM CDT MON APR 27 2015

NOTE:  "FAIR" INDICATES FEW OR NO CLOUDS BELOW 12,000 FEET WITH NO
SIGNIFICANT WEATHER AND/OR OBSTRUCTIONS TO VISIBILITY.

KSZ001>006-013>018-027>032-041>047-272300-
NORTHWEST KANSAS

CITY           SKY/WX    TMP DP  RH WIND       PRES   REMARKS
GOODLAND       MOSUNNY   58  31  35 NE15G24   30.18F
HAYS           MOSUNNY   63  32  31 NE22G38   30.11F
HILL CITY      PTSUNNY   63  33  32 NE21      30.14F
RUSSELL        MOSUNNY   63  35  35 NE20G28   30.09F
$$

KSZ061>065-074>080-084>089-272300-
SOUTHWEST KANSAS

CITY           SKY/WX    TMP DP  RH WIND       PRES   REMARKS
DODGE CITY     CLOUDY    56  33  42 NE24      30.07F
GARDEN CITY    CLOUDY    55  28  35 NE26      30.09F
GREAT BEND     PTSUNNY   61  36  39 NE21G30   30.07F
LIBERAL        CLOUDY    50  41  71 NE16      30.10R
$$

KSZ066>073-081>083-090>101-272300-
SOUTHEAST KANSAS

CITY           SKY/WX    TMP DP  RH WIND       PRES   REMARKS
CHANUTE        PTSUNNY   64  36  35 E21G29    29.99F
COFFEYVILLE    CLOUDY    65  37  35 NE20G26   29.95F
HUTCHINSON     PTSUNNY   65  37  35 NE18G28   30.03F
MEDICINE LODGE   N/A     57  38  48 NE10      30.02R
NEWTON         PTSUNNY   61  36  39 NE16G29   30.05R
PARSONS        PTSUNNY   64  39  39 NE9G23    29.98
WICHITA INTL   PTSUNNY   64  35  34 NE22G35   30.01S
WICHITA JABRA  CLOUDY    61  34  36 NE23      30.01S
WINFIELD       CLOUDY    61  35  37 E16G26    30.00R
$$

KSZ007>012-019>026-033>040-048>060-102>105-272300-
NORTHEAST KANSAS

CITY           SKY/WX    TMP DP  RH WIND       PRES   REMARKS
CONCORDIA      PTSUNNY   63  33  32 NE13G24   30.10F
EMPORIA        PTSUNNY   64  36  35 NE20G29   30.03F
LAWRENCE       MOSUNNY   66  34  30 E15G24    30.07S
MANHATTAN      MOSUNNY   65  37  35 NE17      30.06F
OLATHE IND     SUNNY     66  33  29 NE16G23   30.06S
OLATHE EXE     MOSUNNY   66  33  29 NE16G24   30.05S
SALINA         MOSUNNY   66  34  30 NE16G25   30.07F
TOPEKA BILLARD MOSUNNY   66  36  32 NE18G24   30.06F
TOPEKA FORBES  SUNNY     67  36  31 NE13G24   30.05F
$$


USA.gov is the U.S. government's official web portal to all federal, state and local government web resources and services.